LEMUR-2-MCPEAKE

Last updated on Wed Feb 14 2018 16:20:45 GMT+0000 (Coordinated Universal Time)

1 42782U 17036T 18045.11020831 .00001572 00000-0 72507-4 0 9994 2 42782 97.4194 106.8732 0013508 140.5204 219.7019 15.21654497 35796
UTC large
Height (km)
Speed (km/s)
/
Latitude / Longitude
Inclination (degrees)
Orbital Period (minutes)
Azimuth
Elevation
Range (km)
Doppler Factor

Next 0 passes for location: London (51.5072 / 0.1276)

Sorry there are no passes over London.